Vertical_Velocity
-3 0 1 0 3 2 5 2 -1 -1 -2 -2 -3 0 -2 2 -1 1 -3 1 6 1 4 9 4 -0 0
-8 -6 -3 -3 -1 0 -1 -2 4 4 1 1 -2 -2 -1 1 5 4 5 -2 -1 -1 -3 2 -1 1 2
-1 2 5 2 -1 -1 -3 -1 0 3 4 4 -0 3 -0 6 3 -3 -0 -5 -3 -0 -4 -2 1 -3 -1
4 -2 3 -3 2 2 -7 -0 -1 2 2 2 5 -1 -3 -0 -0 -0 1 -2 -2 -1 -4 -0 4 -1 -0
7 -2 -3 -6 -7 -13 -5 5 2 -0 -0 -3 -0 -2 -4 -1 -2 -5 -1 2 1 1 -1 3 -2 2 3
-0 -13 -3 -2 -8 -7 -1 -0 -6 -7 7 0 3 -7 1 -3 -1 -1 2 1 1 -4 -2 -0 -2 1 0
-8 -13 -2 -10 -4 -6 -3 -1 -11 -4 7 -3 -1 -7 -1 0 0 3 -1 -1 1 -0 -0 1 1 0 2
-0 3 2 1 -7 0 -8 12 10 2 4 -7 5 -10 1 2 1 -1 1 -4 1 3 -1 -1 1 0 2
1 4 4 3 -2 9 2 1 1 -6 -5 3 -6 1 2 -1 -2 -2 -6 2 3 1 -1 3 1 3 -5
1 16 12 5 4 -6 6 -3 4 7 -10 5 1 2 5 -2 -1 -1 0 -1 2 -1 -0 3 2 -1 -2
4 8 9 4 -4 -1 5 -7 -5 -7 -10 6 -3 -1 3 -7 1 -0 2 2 0 2 1 -1 -2 -1 0
6 7 0 -8 1 -0 -5 -1 -15 -3 11 2 -2 1 -1 2 1 -3 -2 2 0 2 3 -0 -0 3 -4
-4 -2 -9 -6 -7 23 10 6 5 -2 5 -4 -3 4 6 1 -1 -3 6 -2 -0 3 -1 -1 1 -1 -1
-1 2 8 11 1 2 2 1 4 6 4 11 9 16 1 4 -1 -2 -6 -3 -3 -1 3 1 1 0 0
3 3 -1 1 -2 2 7 7 6 -2 -0 -2 13 6 1 6 1 0 -1 -0 -1 -1 0 1 0 1 1
6 -1 -4 3 -0 5 7 -1 1 -3 0 -6 -1 4 5 5 6 -1 -1 1 2 5 1 1 1 -2 0
-7 -1 1 0 -5 3 6 10 2 6 3 -0 -1 7 6 0 -3 -1 -3 1 2 1 2 -0 1 3 1
Height
1499 1504 1509 1511 1515 1519 1523 1528 1532 1535 1539 1543 1547 1551 1554 1557 1559 1561 1563 1565 1566 1567 1568 1568 1568 1568 1569
1489 1493 1497 1503 1508 1510 1514 1517 1521 1525 1530 1533 1538 1542 1545 1548 1550 1553 1555 1557 1559 1560 1561 1562 1562 1560 1561
1478 1483 1488 1493 1498 1502 1504 1506 1509 1514 1520 1524 1527 1532 1535 1538 1541 1543 1546 1548 1550 1551 1552 1553 1553 1553 1554
1466 1471 1475 1482 1488 1492 1494 1496 1499 1504 1508 1513 1517 1521 1525 1528 1531 1533 1536 1538 1540 1542 1544 1545 1545 1545 1546
1451 1458 1463 1468 1474 1481 1485 1490 1492 1495 1499 1501 1505 1510 1513 1517 1520 1523 1526 1529 1531 1534 1536 1537 1537 1537 1537
1437 1442 1446 1452 1464 1469 1477 1478 1482 1487 1490 1492 1496 1499 1503 1507 1512 1516 1520 1523 1525 1525 1528 1528 1529 1529 1529
1421 1424 1432 1436 1448 1457 1463 1469 1472 1478 1483 1485 1489 1491 1496 1500 1504 1508 1511 1514 1515 1516 1518 1520 1520 1521 1521
1407 1417 1424 1428 1434 1444 1452 1459 1464 1469 1473 1477 1480 1483 1488 1492 1495 1500 1502 1504 1506 1507 1508 1510 1511 1512 1512
1399 1407 1413 1418 1426 1435 1439 1446 1451 1455 1462 1467 1471 1475 1478 1483 1486 1489 1492 1495 1496 1498 1499 1501 1503 1503 1503
1389 1396 1401 1406 1413 1419 1426 1431 1438 1443 1449 1456 1460 1466 1469 1471 1476 1479 1481 1484 1486 1489 1490 1491 1494 1493 1494
1377 1385 1388 1393 1399 1407 1412 1417 1424 1430 1438 1445 1449 1455 1459 1462 1464 1468 1473 1476 1478 1480 1481 1482 1484 1485 1486
1364 1371 1374 1380 1386 1392 1399 1405 1412 1420 1427 1433 1438 1443 1448 1451 1455 1460 1464 1467 1469 1471 1472 1473 1475 1477 1478
1349 1354 1359 1367 1377 1383 1389 1396 1404 1412 1419 1423 1427 1433 1435 1440 1445 1451 1455 1458 1461 1462 1463 1466 1468 1470 1471
1336 1342 1351 1357 1361 1368 1376 1383 1393 1398 1405 1412 1415 1421 1426 1431 1438 1442 1447 1450 1452 1455 1456 1458 1461 1463 1464
1323 1329 1335 1342 1349 1356 1364 1371 1378 1385 1392 1401 1407 1412 1417 1422 1427 1432 1437 1441 1443 1447 1449 1451 1454 1455 1457
1306 1311 1323 1330 1337 1344 1353 1359 1367 1373 1383 1389 1397 1403 1408 1413 1419 1422 1428 1433 1436 1438 1441 1443 1446 1448 1450
1292 1301 1311 1318 1326 1333 1340 1349 1356 1364 1371 1380 1386 1393 1398 1401 1410 1416 1420 1427 1428 1431 1434 1437 1440 1442 1444